Location: Lecco
(45.8566°N, 9.3977°E)
Time: 01:00:29
(UTC+01:00)

Envisat - Pass Details

Date: 24 October 2019
Orbit: 764 x 766 km, 98.1° (Epoch: 14 November)

Event Time Altitude Azimuth Distance (km) Brightness Sun altitude
Rises 20:20:42 0° 197° (SSW) 3,219 6.4 -21.3°
Reaches altitude 10° 20:23:21 10° 210° (SSW) 2,298 5.8 -21.8°
Maximum altitude 20:27:34 26° 267° (W) 1,473 5.2 -22.5°
Drops below altitude 10° 20:31:48 10° 323° (NW) 2,312 6.0 -23.3°
Sets 20:34:29 0° 336° (NNW) 3,243 6.7 -23.7°
